Location: downtown San Diego
(32.7310°N, 117.1990°W)
Time: 03:49:47
(UTC-07:00)

Daily predictions for brighter satellites

Satellite Brightness Start Highest point End
(mag) Time Altitude Azimuth Time Altitude Azimuth Time Altitude Azimuth
ACS3 Solar Sail 4.0 00:11:34 10° NE 00:12:29 12° ENE 00:12:29 12° ENE
ATLAS 5 CENTAUR R/B 4.1 00:41:06 44° NE 00:41:06 44° NE 00:49:29 10° NE
SL-16 R/B 3.8 00:48:00 10° N 00:51:25 30° NNE 00:51:25 30° NNE
Cosmos 2237 Rocket 4.2 00:55:47 10° NW 00:57:42 21° NW 00:57:42 21° NW
Cosmos 2263 Rocket 3.8 01:05:32 29° NNW 01:05:32 29° NNW 01:08:37 10° N
Cosmos 2227 Rocket 4.1 01:05:01 24° NW 01:05:01 24° NW 01:08:21 10° N
Milstar 3 Cent rocket 4.2 01:06:41 54° SE 01:06:41 54° SE 01:22:37 10° E
USA 234 3.9 01:15:27 10° NNE 01:21:30 47° NW 01:21:30 47° NW
Cosmos 1844 Rocket 4.2 01:34:29 32° NE 01:34:29 32° NE 01:37:30 10° NNE
ATLAS 2AS CENTAUR R/B 4.1 01:31:17 10° N 01:37:15 32° NE 01:40:07 24° E
CENTAUR R/B 3.3 01:48:08 42° N 01:48:08 42° N 01:52:28 10° NNE
SeaSat 1 4.0 01:56:42 32° NNE 01:56:42 32° NNE 01:59:58 10° N
ACS3 Solar Sail 2.6 01:51:49 10° N 01:55:56 43° NNW 01:55:56 43° NNW
Cosmos 2315 Rocket 4.4 02:07:28 60° N 02:07:28 60° N 02:12:35 10° N
Atlas Centaur 2 4.0 02:15:38 25° ESE 02:15:38 25° ESE 02:18:39 10° ESE
Cosmos 1709 Rocket 4.3 02:11:53 10° N 02:16:57 61° NNW 02:16:57 61° NNW
ADEOS Rocket 3.4 02:20:44 10° NNE 02:28:00 66° E 02:28:24 65° ESE
Resurs 1-4 Rocket 4.0 02:28:03 10° NE 02:31:47 20° E 02:32:29 19° ESE
IDEFIX/ARIANE 42P 3.1 02:31:54 10° N 02:35:55 54° N 02:35:55 54° N
CZ-4C R/B 4.1 02:33:50 10° NNW 02:40:56 43° NE 02:49:18 10° ESE
NOSS 3-2 (A) 3.6 02:51:43 49° NNW 02:51:43 49° NNW 02:56:13 10° NNE
SL-24 R/B - RUBIN 2 4.5 02:57:55 47° N 02:57:55 47° N 03:01:14 10° NNE
ALOS 3.8 02:54:04 10° NE 02:57:57 27° E 02:58:19 27° ESE
Cosmos 1538 Rocket 4.1 02:59:12 69° N 02:59:12 69° N 03:03:44 10° NNE
MOS 1-B Rocket 4.2 02:52:15 10° NNE 02:59:50 89° ESE 03:00:58 65° SSW
Meteor 1-12 Rocket 4.2 02:58:34 10° N 03:04:13 76° E 03:04:52 68° SE
Cosmos 2074 Rocket 4.1 03:00:57 10° N 03:07:11 73° E 03:08:59 48° SSE
Cosmos 2154 Rocket 4.1 03:06:32 10° N 03:12:44 71° E 03:15:01 40° SSE
NOSS 3-2 (C) 2.9 03:14:35 72° ESE 03:14:35 72° ESE 03:19:55 10° NE
Cosmos 2184 Rocket 3.9 03:13:36 10° N 03:19:48 89° E 03:21:38 49° S
Cosmos 2344 3.6 03:17:59 47° SW 03:20:28 70° WNW 03:27:41 10° NNE
NOSS 2-3 (C) 4.3 03:25:57 37° E 03:25:57 37° E 03:28:29 10° NE
Cosmos 1943 Rocket 3.5 03:24:28 22° SSE 03:27:05 32° ESE 03:32:03 10° NE
ATLAS 2AS CENTAUR R/B 3.1 03:21:51 10° NW 03:27:24 41° W 03:27:24 41° W
Cosmos 44 Rocket 4.0 03:24:03 10° NNW 03:29:06 56° ENE 03:33:59 10° SE
CZ-2D R/B 2.3 03:24:03 10° NNE 03:29:29 68° ESE 03:31:11 44° S
BREEZE-M DEB (TANK) 4.2 03:26:30 10° NW 03:30:25 81° NE 03:46:06 10° SE
H-2A R/B 4.2 03:30:19 13° ESE 03:32:44 25° ENE 03:35:44 10° NNE
MOZ.5/SAFIR/RUBIN 5/SL-8 3.5 03:36:38 69° SSW 03:37:08 80° WSW 03:41:43 10° NNW
ADEOS II 2.3 03:36:58 10° NNE 03:42:09 64° ESE 03:44:26 33° S
Cosmos 1933 Rocket 3.7 03:38:26 10° NNW 03:42:13 52° WNW 03:42:13 52° WNW
Okean 1-7 3.3 03:46:22 39° SSE 03:47:36 58° E 03:51:39 10° NNE
Cosmos 1603 4.2 03:43:46 10° NW 03:48:58 39° WSW 03:48:58 39° WSW
OAO 3 Rocket 4.2 03:52:19 30° SSE 03:52:57 32° SSE 03:57:13 10° E
Nadezhda 1 Rocket 4.2 03:51:17 39° SW 03:52:57 49° W 03:58:49 10° N
Envisat 3.3 03:48:06 10° N 03:52:58 48° WNW 03:54:01 42° WSW
Sakura Rocket 4.4 03:52:10 33° WSW 03:55:30 61° S 04:04:26 10° ESE
USA 281 3.6 03:51:19 10° SE 03:57:48 67° ENE 04:04:19 10° NNW
Transit 2A Rocket 4.3 03:53:27 10° NNW 03:57:51 87° WSW 04:02:06 10° SSE
Atlas Centaur 2 3.0 03:57:34 33° WSW 03:59:57 43° SSW 04:07:16 10° SE
NOSS 2-3 (D) 3.9 04:01:00 37° WNW 04:01:18 37° WNW 04:04:44 10° NNE
H-2A R/B 2.2 04:02:09 10° N 04:07:30 61° WNW 04:10:02 31° SW
ARGOS 3.6 04:03:51 10° NNE 04:09:07 58° E 04:13:56 12° S
NOSS 2-3 (E) 4.4 04:10:08 26° WNW 04:10:41 27° NW 04:13:51 10° N
Cosmos 1400 Rocket 3.2 04:07:17 10° NNW 04:10:43 38° W 04:10:43 38° W
Resurs 1-4 Rocket 2.7 04:06:45 10° N 04:11:37 40° WNW 04:13:31 29° WSW
Cosmos 1869 Rocket 4.2 04:10:02 10° NNW 04:13:53 32° W 04:14:15 32° WSW
Cosmos 494 Rocket 4.0 04:14:13 29° SW 04:16:47 66° WNW 04:21:56 10° N
JB-3 4.0 04:15:59 16° S 04:18:48 87° W 04:22:32 10° NNW
Yuri Rocket 4.4 04:18:00 27° WSW 04:20:28 39° SSW 04:27:19 10° SE
Cosmos 1680 Rocket 3.9 04:18:59 28° SW 04:21:18 46° WNW 04:26:18 10° N
Cosmos 2278 Rocket 2.2 04:17:54 19° SSW 04:22:03 81° ESE 04:27:44 10° NNE
METEOR-M 4.1 04:16:46 10° N 04:22:05 71° WNW 04:25:51 20° SSW
EXPRESS MD2 4.3 04:24:01 10° NNW 04:26:31 37° NE 04:30:11 10° ESE
Cosmos 1707 Rocket 3.8 04:24:42 28° SW 04:26:35 46° W 04:30:44 10° N
Spot 2 4.3 04:24:15 10° S 04:29:08 65° WSW 04:33:53 10° NNW
CZ-4C R/B 3.5 04:21:57 10° NW 04:29:25 45° WSW 04:37:58 10° S
SL-8 Rocket 3.9 04:23:32 10° N 04:29:45 82° W 04:35:53 10° S
Cosmos 2056 Rocket 4.1 04:25:16 10° N 04:30:21 59° ENE 04:35:21 10° SSE
SL-16 R/B 3.5 04:26:07 10° SE 04:32:07 52° ENE 04:38:07 10° N
Cosmos 1862 Rocket 4.2 04:31:06 24° SW 04:32:59 35° W 04:37:00 10° NNW
ALOS 3.6 04:31:10 10° NNW 04:34:39 22° WNW 04:36:20 18° W
Cosmos 2341 Rocket 4.0 04:33:57 10° N 04:40:14 70° W 04:46:26 10° S
H-2A R/B 2.2 04:37:00 10° NNE 04:41:00 65° ESE 04:45:02 10° S
Cosmos 2218 Rocket 4.0 04:37:18 10° N 04:43:42 77° W 04:50:03 10° S
Nadezhda 3 Rocket 4.5 04:40:58 10° S 04:47:01 63° E 04:53:05 10° NNE
AQUA 3.8 04:43:16 10° N 04:47:54 64° WNW 04:52:30 10° SSW
Cosmos 1048 Rocket 3.9 04:46:30 11° SSW 04:51:18 68° WNW 04:56:25 10° N
Cosmos 1733 Rocket 3.9 04:52:08 10° NNW 04:55:51 29° W 04:59:33 10° SSW
GOES 2 Rocket 4.1 04:50:46 14° WSW 04:56:13 49° S 05:01:09 10° E
Cosmos 724 4.4 04:52:29 10° NW 04:58:03 51° WSW 05:03:38 10° S
Cosmos 2228 Rocket 4.0 04:55:50 13° SW 04:59:05 29° W 05:02:56 10° NNW
SL-24 DEB 4.3 04:57:29 10° S 05:01:52 54° W 05:06:14 10° NNW
Cosmos 1908 Rocket 3.7 04:59:09 10° N 05:03:35 79° E 05:07:59 10° S
Cosmos 1939 Rocket 4.2 05:00:03 10° NNE 05:03:35 37° E 05:07:06 10° SSE
USA 59 Rocket -0.3 05:00:26 10° SSW 05:05:01 82° WNW 05:08:27 10° NNE
Cosmos 2366 rocket 4.4 05:00:30 10° NNW 05:06:26 43° W 05:12:22 10° SSW
H-2A R/B 3.9 05:05:14 11° WSW 05:06:39 14° W 05:08:32 10° WNW
Cosmos 1833 Rocket 3.2 05:02:46 10° NW 05:07:52 36° WSW 05:12:58 10° S
CZ-2D R/B 4.1 05:06:18 10° NW 05:08:47 13° WNW 05:11:16 10° W
USA 238 DEB 3.6 05:03:23 10° SW 05:09:15 63° WNW 05:15:37 10° NNE
USA 238 3.6 05:03:35 10° SW 05:09:27 64° WNW 05:15:49 10° NNE
Cosmos 1943 Rocket 3.3 05:05:58 10° WSW 05:10:43 28° WNW 05:15:34 10° N
CZ-2C R/B 2.2 05:08:44 10° N 05:13:17 83° WNW 05:17:51 10° SSW
Cosmos 1656 Rocket 4.0 05:10:59 10° S 05:16:18 66° ESE 05:21:41 10° NNE
SL-08 RB Rocket 4.2 05:12:08 10° N 05:16:27 43° WNW 05:20:45 10° SW
Meteor 2-8 Rocket 4.5 05:10:51 10° N 05:17:02 84° W 05:23:11 10° S
Cosmos 1371 Rocket 4.3 05:12:50 10° NNW 05:17:54 48° WSW 05:22:53 10° S
NOSS 2-1 (E) 3.5 05:13:06 10° SSW 05:18:02 80° ESE 05:21:42 10° NNE
PAYLOAD A 4.0 05:16:31 10° NNE 05:21:27 85° W 05:26:32 10° SSW
